Evansville Regional (EVV)

 

Airport Diagram
Current Weather/Forecast (MVFR Conditions)
METAR KEVV 240554Z AUTO 33008G17KT 10SM OVC014 08/04 A3021 RMK AO2 SLP229 60000 T00830044 10094 20083 402890083 51008
TAF KEVV 240520Z 2406/2506 35012G20KT P6SM OVC015 FM241400 02010KT P6SM BKN020 FM241800 03007KT P6SM BKN025 FM250000 03007KT P6SM BKN030

Airport Information

All Charts
General
Chart Name View
AIRPORT DIAGRAM
AIRPORT DIAGRAM
TAKEOFF MINIMUMS
ALTERNATE MINIMUMS
RADAR MINIMUMS
TAKEOFF MINIMUMS
ALTERNATE MINIMUMS
RADAR MINIMUMS
HOT SPOT
HOT SPOT

Approaches
Chart Name Download
ILS OR LOC RWY 04
ILS OR LOC RWY 22
RNAV (GPS) RWY 04
RNAV (GPS) RWY 18
RNAV (GPS) RWY 22
RNAV (GPS) RWY 36
VOR RWY 04
ILS OR LOC RWY 04
ILS OR LOC RWY 22
RNAV (GPS) RWY 04
RNAV (GPS) RWY 18
RNAV (GPS) RWY 22
RNAV (GPS) RWY 36
VOR RWY 04


Airport Statistics
Departures Arrivals Local
All Collected Stats since June 2016: 138 130 2
2020 Stats: 50 53 0
October Stats: 3 2 0

Inbound Traffic (Arrivals) - 0

No inbound traffic.


Outbound Traffic (Departures) - 0

No outbound traffic.


Local Traffic (Pattern) - 0

No local traffic.